Time,TemperatureF,DewpointF,PressureIn,WindDirection,WindDirectionDegrees,WindSpeedMPH,WindSpeedGustMPH,Humidity,HourlyPrecipIn,Conditions,Clouds,dailyrainin,SoftwareType,DateUTC
2013-04-24 00:02:00,30.9,22.3,30.14,NW,304,3.5,3.5,70,0.00,RA,,0.00,WeatherDisplay:10.37,2013-04-24 05:02:00,
2013-04-24 00:07:00,30.8,22.2,30.14,NW,304,3.5,3.5,70,0.00,RA,,0.00,WeatherDisplay:10.37,2013-04-24 05:07:00,
2013-04-24 00:12:00,30.7,22.1,30.14,NW,304,0.0,0.0,70,0.00,CLR,,0.00,WeatherDisplay:10.37,2013-04-24 05:12:00,
2013-04-24 00:17:00,30.5,22.2,30.13,NW,304,0.0,0.0,71,0.00,CLR,,0.00,WeatherDisplay:10.37,2013-04-24 05:17:00,
2013-04-24 00:22:00,30.4,22.1,30.13,NW,304,0.0,0.0,71,0.00,CLR,,0.00,WeatherDisplay:10.37,2013-04-24 05:22:00,
2013-04-24 00:27:00,30.3,22.0,30.13,NW,304,1.2,1.2,71,0.00,CLR,,0.00,WeatherDisplay:10.37,2013-04-24 05:27:00,
2013-04-24 00:32:00,30.2,23.5,30.13,NW,304,0.0,0.0,76,0.00,CLR,,0.00,WeatherDisplay:10.37,2013-04-24 05:32:00,
2013-04-24 00:37:00,30.1,21.8,30.13,NW,304,0.0,0.0,71,0.00,CLR,,0.00,WeatherDisplay:10.37,2013-04-24 05:37:00,
2013-04-24 00:42:00,30.0,22.1,30.13,NW,304,0.0,0.0,72,0.00,CLR,,0.00,WeatherDisplay:10.37,2013-04-24 05:42:00,
2013-04-24 00:47:00,29.9,22.0,30.13,NW,304,0.0,0.0,72,0.00,CLR,,0.00,WeatherDisplay:10.37,2013-04-24 05:47:00,
2013-04-24 00:52:00,29.9,22.0,30.13,NW,304,0.0,0.0,72,0.00,CLR,,0.00,WeatherDisplay:10.37,2013-04-24 05:52:00,
2013-04-24 00:57:00,29.8,22.2,30.13,NW,304,3.5,3.5,73,0.00,CLR,,0.00,WeatherDisplay:10.37,2013-04-24 05:57:00,
2013-04-24 01:02:00,29.8,22.2,30.13,NW,304,0.0,0.0,73,0.00,CLR,,0.00,WeatherDisplay:10.37,2013-04-24 06:02:00,
2013-04-24 01:07:00,29.6,22.0,30.13,NW,304,0.0,0.0,73,0.00,CLR,,0.00,WeatherDisplay:10.37,2013-04-24 06:07:00,
2013-04-24 01:12:00,29.4,22.1,30.13,NW,304,3.5,3.5,74,0.00,CLR,,0.00,WeatherDisplay:10.37,2013-04-24 06:12:00,
2013-04-24 01:17:00,29.4,22.1,30.13,NW,304,0.0,0.0,74,0.00,CLR,,0.00,WeatherDisplay:10.37,2013-04-24 06:17:00,
2013-04-24 01:22:00,29.4,22.1,30.13,NW,304,0.0,0.0,74,0.00,CLR,,0.00,WeatherDisplay:10.37,2013-04-24 06:22:00,
2013-04-24 01:27:00,29.2,22.3,30.13,West,281,3.5,3.5,75,0.00,CLR,,0.00,WeatherDisplay:10.37,2013-04-24 06:27:00,
2013-04-24 01:32:00,29.2,22.3,30.13,West,281,0.0,0.0,75,0.00,CLR,,0.00,WeatherDisplay:10.37,2013-04-24 06:32:00,
2013-04-24 01:39:00,29.3,22.4,30.12,West,281,0.0,0.0,75,0.00,CLR,,0.00,WeatherDisplay:10.37,2013-04-24 06:39:00,
2013-04-24 01:44:00,29.0,22.1,30.12,West,281,0.0,0.0,75,0.00,CLR,,0.00,WeatherDisplay:10.37,2013-04-24 06:44:00,
2013-04-24 01:49:00,28.6,22.0,30.12,West,281,0.0,0.0,76,0.00,CLR,,0.00,WeatherDisplay:10.37,2013-04-24 06:49:00,
2013-04-24 01:54:00,28.1,21.8,30.12,West,281,0.0,0.0,77,0.00,CLR,,0.00,WeatherDisplay:10.37,2013-04-24 06:54:00,
2013-04-24 01:59:00,27.8,21.8,30.12,West,280,0.0,0.0,78,0.00,CLR,,0.00,WeatherDisplay:10.37,2013-04-24 06:59:00,
2013-04-24 02:04:00,27.6,21.9,30.12,WSW,257,0.0,0.0,79,0.00,CLR,,0.00,WeatherDisplay:10.37,2013-04-24 07:04:00,
2013-04-24 02:09:00,27.6,21.9,30.12,WSW,257,0.0,0.0,79,0.00,CLR,,0.00,WeatherDisplay:10.37,2013-04-24 07:09:00,
2013-04-24 02:14:00,27.5,22.1,30.12,WSW,257,0.0,0.0,80,0.00,CLR,,0.00,WeatherDisplay:10.37,2013-04-24 07:14:00,
2013-04-24 02:19:00,27.3,21.9,30.12,WSW,257,0.0,0.0,80,0.00,CLR,,0.00,WeatherDisplay:10.37,2013-04-24 07:19:00,
2013-04-24 02:24:00,27.0,21.7,30.12,WSW,257,0.0,0.0,80,0.00,CLR,,0.00,WeatherDisplay:10.37,2013-04-24 07:24:00,
2013-04-24 02:29:00,27.0,21.9,30.12,WSW,257,0.0,0.0,81,0.00,CLR,,0.00,WeatherDisplay:10.37,2013-04-24 07:29:00,
2013-04-24 02:34:00,26.9,22.1,30.12,WSW,257,0.0,0.0,82,0.00,CLR,,0.00,WeatherDisplay:10.37,2013-04-24 07:34:00,
2013-04-24 02:39:00,27.0,22.2,30.12,WSW,257,0.0,0.0,82,0.00,CLR,,0.00,WeatherDisplay:10.37,2013-04-24 07:39:00,
2013-04-24 02:44:00,27.1,22.3,30.12,WSW,257,3.5,3.5,82,0.00,CLR,,0.00,WeatherDisplay:10.37,2013-04-24 07:44:00,
2013-04-24 02:49:00,27.1,22.3,30.12,WSW,257,3.5,3.5,82,0.00,CLR,,0.00,WeatherDisplay:10.37,2013-04-24 07:49:00,
2013-04-24 02:54:00,27.2,22.4,30.12,SW,227,4.6,4.6,82,0.00,CLR,,0.00,WeatherDisplay:10.37,2013-04-24 07:54:00,
2013-04-24 02:59:00,27.2,22.7,30.12,SW,227,3.5,3.5,83,0.00,CLR,,0.00,WeatherDisplay:10.37,2013-04-24 07:59:00,
2013-04-24 03:04:00,27.2,22.7,30.12,SW,226,3.5,3.5,83,0.00,CLR,,0.00,WeatherDisplay:10.37,2013-04-24 08:04:00,
2013-04-24 03:09:00,27.2,22.7,30.12,SW,227,4.6,4.6,83,0.00,CLR,,0.00,WeatherDisplay:10.37,2013-04-24 08:09:00,
2013-04-24 03:14:00,27.1,22.6,30.12,SW,227,0.0,0.0,83,0.00,CLR,,0.00,WeatherDisplay:10.37,2013-04-24 08:14:00,
2013-04-24 03:19:00,26.8,22.3,30.12,SW,227,0.0,0.0,83,0.00,CLR,,0.00,WeatherDisplay:10.37,2013-04-24 08:19:00,
2013-04-24 03:24:00,26.6,22.1,30.12,SW,226,0.0,0.0,83,0.00,CLR,,0.00,WeatherDisplay:10.37,2013-04-24 08:24:00,
2013-04-24 03:29:00,26.3,22.1,30.12,SW,227,0.0,0.0,84,0.00,CLR,,0.00,WeatherDisplay:10.37,2013-04-24 08:29:00,
2013-04-24 03:34:00,26.3,22.1,30.12,SW,227,0.0,0.0,84,0.00,CLR,,0.00,WeatherDisplay:10.37,2013-04-24 08:34:00,
2013-04-24 03:39:00,26.3,22.4,30.12,SW,227,0.0,0.0,85,0.00,CLR,,0.00,WeatherDisplay:10.37,2013-04-24 08:39:00,
2013-04-24 03:44:00,26.3,22.4,30.12,SW,227,0.0,0.0,85,0.00,CLR,,0.00,WeatherDisplay:10.37,2013-04-24 08:44:00,
2013-04-24 03:49:00,26.3,22.7,30.12,SW,227,0.0,0.0,86,0.00,CLR,,0.00,WeatherDisplay:10.37,2013-04-24 08:49:00,
2013-04-24 03:54:00,26.3,22.7,30.11,SW,226,2.3,0.0,86,0.00,CLR,,0.00,WeatherDisplay:10.37,2013-04-24 08:54:00,
2013-04-24 03:59:00,26.4,22.8,30.12,SW,227,0.0,0.0,86,0.00,CLR,,0.00,WeatherDisplay:10.37,2013-04-24 08:59:00,
2013-04-24 04:04:00,26.3,22.7,30.11,SW,226,2.0,2.0,86,0.00,CLR,,0.00,WeatherDisplay:10.37,2013-04-24 09:04:00,
2013-04-24 04:09:00,26.2,22.6,30.11,SW,226,0.0,0.0,86,0.00,CLR,,0.00,WeatherDisplay:10.37,2013-04-24 09:09:00,
2013-04-24 04:14:00,26.2,22.6,30.11,SW,227,2.3,0.0,86,0.00,CLR,,0.00,WeatherDisplay:10.37,2013-04-24 09:14:00,
2013-04-24 04:19:00,26.2,22.6,30.11,SW,227,0.0,1.1,86,0.00,CLR,,0.00,WeatherDisplay:10.37,2013-04-24 09:19:00,
2013-04-24 04:24:00,26.1,22.8,30.11,SW,227,3.5,3.5,87,0.00,CLR,,0.00,WeatherDisplay:10.37,2013-04-24 09:24:00,
2013-04-24 04:29:00,26.1,22.8,30.11,SW,227,3.0,3.0,87,0.00,CLR,,0.00,WeatherDisplay:10.37,2013-04-24 09:29:00,
2013-04-24 04:34:00,26.1,22.8,30.10,SW,226,3.5,3.5,87,0.00,CLR,,0.00,WeatherDisplay:10.37,2013-04-24 09:34:00,
2013-04-24 04:39:00,26.1,22.8,30.10,SW,216,3.5,3.5,87,0.00,CLR,,0.00,WeatherDisplay:10.37,2013-04-24 09:39:00,
2013-04-24 04:44:00,26.0,22.7,30.10,SSW,213,4.6,4.6,87,0.00,CLR,,0.00,WeatherDisplay:10.37,2013-04-24 09:44:00,
2013-04-24 04:49:00,26.0,22.7,30.11,SSW,212,3.5,3.5,87,0.00,CLR,,0.00,WeatherDisplay:10.37,2013-04-24 09:49:00,
2013-04-24 04:54:00,25.8,22.5,30.11,SSW,211,1.0,1.0,87,0.00,CLR,,0.00,WeatherDisplay:10.37,2013-04-24 09:54:00,
2013-04-24 04:59:00,25.9,22.8,30.11,SSW,213,5.8,5.8,88,0.00,CLR,,0.00,WeatherDisplay:10.37,2013-04-24 09:59:00,
2013-04-24 05:04:00,25.9,22.8,30.11,SSW,213,3.5,3.5,88,0.00,CLR,,0.00,WeatherDisplay:10.37,2013-04-24 10:04:00,
2013-04-24 05:09:00,25.8,22.7,30.10,SSW,213,3.5,3.5,88,0.00,CLR,,0.00,WeatherDisplay:10.37,2013-04-24 10:09:00,
2013-04-24 05:14:00,25.8,22.7,30.10,SSW,213,4.0,4.0,88,0.00,CLR,,0.00,WeatherDisplay:10.37,2013-04-24 10:14:00,
2013-04-24 05:19:00,25.8,22.7,30.10,SSW,213,3.5,3.5,88,0.00,CLR,,0.00,WeatherDisplay:10.37,2013-04-24 10:19:00,
2013-04-24 05:24:00,25.8,22.7,30.10,SSW,198,3.5,3.5,88,0.00,CLR,,0.00,WeatherDisplay:10.37,2013-04-24 10:24:00,
2013-04-24 05:29:00,25.9,22.8,30.10,SSW,211,6.9,6.9,88,0.00,CLR,,0.00,WeatherDisplay:10.37,2013-04-24 10:29:00,
2013-04-24 05:34:00,25.9,22.8,30.10,SSW,204,3.5,3.5,88,0.00,CLR,,0.00,WeatherDisplay:10.37,2013-04-24 10:34:00,
2013-04-24 05:39:00,26.0,23.2,30.10,SSW,205,4.6,4.6,89,0.00,CLR,,0.00,WeatherDisplay:10.37,2013-04-24 10:39:00,
2013-04-24 05:44:00,26.0,22.9,30.10,SSW,210,2.3,0.0,88,0.00,CLR,,0.00,WeatherDisplay:10.37,2013-04-24 10:44:00,
2013-04-24 05:49:00,26.0,22.9,30.10,SSW,210,3.5,3.5,88,0.00,CLR,,0.00,WeatherDisplay:10.37,2013-04-24 10:49:00,
2013-04-24 05:54:00,25.9,23.1,30.10,SSW,209,4.6,4.6,89,0.00,CLR,,0.00,WeatherDisplay:10.37,2013-04-24 10:54:00,
2013-04-24 05:59:00,25.9,22.8,30.09,SSW,206,3.5,3.5,88,0.00,CLR,,0.00,WeatherDisplay:10.37,2013-04-24 10:59:00,
2013-04-24 06:04:00,25.9,22.8,30.09,SSW,204,4.6,4.6,88,0.00,CLR,,0.00,WeatherDisplay:10.37,2013-04-24 11:04:00,
2013-04-24 06:09:00,25.9,22.8,30.09,SSW,203,0.0,2.1,88,0.00,CLR,,0.00,WeatherDisplay:10.37,2013-04-24 11:09:00,
2013-04-24 06:14:00,25.9,22.8,30.09,South,180,3.5,0.0,88,0.00,CLR,,0.00,WeatherDisplay:10.37,2013-04-24 11:14:00,
2013-04-24 06:19:00,25.9,22.8,30.09,South,187,5.8,5.8,88,0.00,CLR,,0.00,WeatherDisplay:10.37,2013-04-24 11:19:00,
2013-04-24 06:24:00,25.9,22.8,30.09,South,191,3.5,3.5,88,0.00,CLR,,0.00,WeatherDisplay:10.37,2013-04-24 11:24:00,
2013-04-24 06:29:00,25.9,22.8,30.09,SSW,192,4.6,4.6,88,0.00,CLR,,0.00,WeatherDisplay:10.37,2013-04-24 11:29:00,
2013-04-24 06:34:00,26.0,22.9,30.09,SW,225,3.5,3.8,88,0.00,CLR,,0.00,WeatherDisplay:10.37,2013-04-24 11:34:00,
2013-04-24 06:39:00,26.1,23.0,30.09,South,174,6.9,6.9,88,0.00,CLR,,0.00,WeatherDisplay:10.37,2013-04-24 11:39:00,
2013-04-24 06:44:00,26.2,23.1,30.09,SSW,198,4.6,4.6,88,0.00,CLR,,0.00,WeatherDisplay:10.37,2013-04-24 11:44:00,
2013-04-24 06:49:00,26.3,23.0,30.09,SSW,202,9.2,9.2,87,0.00,CLR,,0.00,WeatherDisplay:10.37,2013-04-24 11:49:00,
2013-04-24 06:54:00,26.4,23.1,30.09,SW,222,5.8,5.8,87,0.00,CLR,,0.00,WeatherDisplay:10.37,2013-04-24 11:54:00,
2013-04-24 06:59:00,26.5,23.2,30.09,SW,223,8.1,8.1,87,0.00,CLR,,0.00,WeatherDisplay:10.37,2013-04-24 11:59:00,
2013-04-24 07:04:00,26.8,23.2,30.08,SSW,207,6.9,6.9,86,0.00,CLR,,0.00,WeatherDisplay:10.37,2013-04-24 12:04:00,
2013-04-24 07:09:00,26.9,23.3,30.08,South,184,5.8,5.8,86,0.00,CLR,,0.00,WeatherDisplay:10.37,2013-04-24 12:09:00,
2013-04-24 07:14:00,27.2,23.3,30.08,SW,225,6.9,6.9,85,0.00,CLR,,0.00,WeatherDisplay:10.37,2013-04-24 12:14:00,
2013-04-24 07:19:00,27.4,23.5,30.08,SSW,210,4.6,4.6,85,0.00,CLR,,0.00,WeatherDisplay:10.37,2013-04-24 12:19:00,
2013-04-24 07:24:00,27.7,23.5,30.08,SW,217,4.6,5.3,84,0.00,CLR,,0.00,WeatherDisplay:10.37,2013-04-24 12:24:00,
2013-04-24 07:29:00,28.0,23.8,30.08,SSW,211,5.8,5.8,84,0.00,CLR,,0.00,WeatherDisplay:10.37,2013-04-24 12:29:00,
2013-04-24 07:34:00,28.2,24.0,30.09,SSW,198,11.5,11.5,84,0.00,CLR,,0.00,WeatherDisplay:10.37,2013-04-24 12:34:00,
2013-04-24 07:40:00,28.5,24.0,30.08,SSW,211,10.4,10.4,83,0.00,CLR,,0.00,WeatherDisplay:10.37,2013-04-24 12:40:00,
2013-04-24 07:45:00,28.7,23.9,30.09,SW,229,5.8,5.8,82,0.00,CLR,,0.00,WeatherDisplay:10.37,2013-04-24 12:45:00,
2013-04-24 07:50:00,29.0,24.5,30.08,SW,223,6.9,6.9,83,0.00,CLR,,0.00,WeatherDisplay:10.37,2013-04-24 12:50:00,
2013-04-24 07:55:00,29.3,24.5,30.08,SW,227,5.8,6.5,82,0.00,CLR,,0.00,WeatherDisplay:10.37,2013-04-24 12:55:00,
2013-04-24 08:00:00,29.6,24.8,30.08,SSW,211,12.7,12.7,82,0.00,CLR,,0.00,WeatherDisplay:10.37,2013-04-24 13:00:00,
2013-04-24 08:05:00,29.9,24.8,30.08,SSW,212,6.9,6.9,81,0.00,CLR,,0.00,WeatherDisplay:10.37,2013-04-24 13:05:00,
2013-04-24 08:10:00,30.3,25.2,30.08,SW,219,5.0,5.5,81,0.00,CLR,,0.00,WeatherDisplay:10.37,2013-04-24 13:10:00,
2013-04-24 08:15:00,30.6,25.2,30.08,SW,232,9.2,9.2,80,0.00,CLR,,0.00,WeatherDisplay:10.37,2013-04-24 13:15:00,
2013-04-24 08:20:00,31.1,25.7,30.08,SSW,207,12.7,12.7,80,0.00,CLR,,0.00,WeatherDisplay:10.37,2013-04-24 13:20:00,
2013-04-24 08:25:00,31.4,25.6,30.08,SSW,205,8.1,8.1,79,0.00,CLR,,0.00,WeatherDisplay:10.37,2013-04-24 13:25:00,
2013-04-24 08:30:00,31.8,26.0,30.08,SSW,203,3.5,3.5,79,0.00,CLR,,0.00,WeatherDisplay:10.37,2013-04-24 13:30:00,
2013-04-24 08:35:00,32.1,26.0,30.08,SSW,211,3.5,3.5,78,0.00,CLR,,0.00,WeatherDisplay:10.37,2013-04-24 13:35:00,
2013-04-24 08:40:00,32.7,26.9,30.08,SW,214,4.6,4.6,79,0.00,CLR,,0.00,WeatherDisplay:10.37,2013-04-24 13:40:00,
2013-04-24 08:45:00,33.1,26.7,30.08,SW,220,3.5,3.5,77,0.00,CLR,,0.00,WeatherDisplay:10.37,2013-04-24 13:45:00,
2013-04-24 08:50:00,33.3,26.5,30.08,SW,221,9.2,9.2,76,0.00,CLR,,0.00,WeatherDisplay:10.37,2013-04-24 13:50:00,
2013-04-24 08:55:00,33.5,26.4,30.08,SW,217,9.2,9.2,75,0.00,CLR,,0.00,WeatherDisplay:10.37,2013-04-24 13:55:00,
2013-04-24 09:00:00,33.8,26.7,30.07,SW,233,8.1,8.1,75,0.00,CLR,,0.00,WeatherDisplay:10.37,2013-04-24 14:00:00,
2013-04-24 09:05:00,34.2,26.8,30.07,SSW,195,5.8,5.8,74,0.00,CLR,,0.00,WeatherDisplay:10.37,2013-04-24 14:05:00,
2013-04-24 09:10:00,34.4,27.0,30.07,SW,214,3.5,3.5,74,0.00,CLR,,0.00,WeatherDisplay:10.37,2013-04-24 14:10:00,
2013-04-24 09:15:00,34.7,26.6,30.07,SW,236,11.5,11.5,72,0.00,CLR,,0.00,WeatherDisplay:10.37,2013-04-24 14:15:00,
2013-04-24 09:20:00,34.6,26.5,30.07,WNW,288,5.8,5.8,72,0.00,CLR,,0.00,WeatherDisplay:10.37,2013-04-24 14:20:00,
2013-04-24 09:25:00,34.9,26.8,30.07,WNW,283,6.9,6.9,72,0.00,CLR,,0.00,WeatherDisplay:10.37,2013-04-24 14:25:00,
2013-04-24 09:30:00,35.2,26.7,30.07,SW,234,9.2,9.2,71,0.00,CLR,,0.00,WeatherDisplay:10.37,2013-04-24 14:30:00,
2013-04-24 09:35:00,35.4,26.9,30.07,WSW,254,10.4,10.4,71,0.00,CLR,,0.00,WeatherDisplay:10.37,2013-04-24 14:35:00,
2013-04-24 09:40:00,35.5,27.4,30.07,West,279,10.4,10.4,72,0.00,CLR,,0.00,WeatherDisplay:10.37,2013-04-24 14:40:00,
2013-04-24 09:45:00,36.0,27.5,30.07,SW,225,4.6,4.6,71,0.00,CLR,,0.00,WeatherDisplay:10.37,2013-04-24 14:45:00,
2013-04-24 09:50:00,36.4,27.5,30.07,SW,236,6.9,6.9,70,0.00,CLR,,0.00,WeatherDisplay:10.37,2013-04-24 14:50:00,
2013-04-24 09:55:00,37.0,28.1,30.07,West,265,9.2,9.2,70,0.00,CLR,,0.00,WeatherDisplay:10.37,2013-04-24 14:55:00,
2013-04-24 10:00:00,37.6,28.7,30.07,WSW,258,6.9,6.9,70,0.00,CLR,,0.00,WeatherDisplay:10.37,2013-04-24 15:00:00,
2013-04-24 10:05:00,37.6,28.0,30.07,WSW,248,11.5,11.5,68,0.00,CLR,,0.00,WeatherDisplay:10.37,2013-04-24 15:05:00,
2013-04-24 10:10:00,37.6,28.0,30.07,WSW,237,11.5,11.5,68,0.00,CLR,,0.00,WeatherDisplay:10.37,2013-04-24 15:10:00,
2013-04-24 10:15:00,38.0,28.7,30.07,WNW,294,6.9,6.9,69,0.00,CLR,,0.00,WeatherDisplay:10.37,2013-04-24 15:15:00,
2013-04-24 10:20:00,38.9,28.9,30.06,West,263,9.2,9.2,67,0.00,CLR,,0.00,WeatherDisplay:10.37,2013-04-24 15:20:00,
2013-04-24 10:25:00,39.2,29.2,30.06,SW,230,9.2,9.2,67,0.00,CLR,,0.00,WeatherDisplay:10.37,2013-04-24 15:25:00,
2013-04-24 10:30:00,39.6,29.2,30.06,WSW,240,9.2,9.2,66,0.00,CLR,,0.00,WeatherDisplay:10.37,2013-04-24 15:30:00,
2013-04-24 10:35:00,39.5,28.7,30.06,SW,217,12.7,12.7,65,0.00,CLR,,0.00,WeatherDisplay:10.37,2013-04-24 15:35:00,
2013-04-24 10:40:00,40.0,29.6,30.06,SSW,212,9.2,9.2,66,0.00,CLR,,0.00,WeatherDisplay:10.37,2013-04-24 15:40:00,
2013-04-24 10:45:00,40.7,29.5,30.06,WSW,240,11.5,11.5,64,0.00,CLR,,0.00,WeatherDisplay:10.37,2013-04-24 15:45:00,
2013-04-24 10:50:00,40.8,29.9,30.06,WSW,243,15.0,15.0,65,0.00,CLR,,0.00,WeatherDisplay:10.37,2013-04-24 15:50:00,
2013-04-24 10:55:00,41.0,29.4,30.06,SSW,202,13.8,13.8,63,0.00,CLR,,0.00,WeatherDisplay:10.37,2013-04-24 15:55:00,
2013-04-24 11:00:00,41.1,29.8,30.06,West,261,11.5,11.5,64,0.00,CLR,,0.00,WeatherDisplay:10.37,2013-04-24 16:00:00,
2013-04-24 11:05:00,41.8,30.5,30.06,WSW,246,10.4,10.4,64,0.00,CLR,,0.00,WeatherDisplay:10.37,2013-04-24 16:05:00,
2013-04-24 11:10:00,42.4,30.7,30.06,West,272,6.9,6.9,63,0.00,CLR,,0.00,WeatherDisplay:10.37,2013-04-24 16:10:00,
2013-04-24 11:15:00,43.0,30.5,30.06,South,188,11.5,11.5,61,0.00,CLR,,0.00,WeatherDisplay:10.37,2013-04-24 16:15:00,
2013-04-24 11:20:00,43.2,30.6,30.06,SSW,210,11.5,11.5,61,0.00,CLR,,0.00,WeatherDisplay:10.37,2013-04-24 16:20:00,
2013-04-24 11:25:00,43.3,30.3,30.05,SW,219,11.5,11.5,60,0.00,CLR,,0.00,WeatherDisplay:10.37,2013-04-24 16:25:00,
2013-04-24 11:30:00,43.5,30.1,30.05,SW,227,11.5,11.5,59,0.00,CLR,,0.00,WeatherDisplay:10.37,2013-04-24 16:30:00,
2013-04-24 11:35:00,44.1,31.1,30.05,SW,221,6.0,6.0,60,0.00,CLR,,0.00,WeatherDisplay:10.37,2013-04-24 16:35:00,
2013-04-24 11:40:00,44.6,30.7,30.05,WSW,239,11.5,11.5,58,0.00,CLR,,0.00,WeatherDisplay:10.37,2013-04-24 16:40:00,
2013-04-24 11:45:00,44.6,31.1,30.05,SW,230,10.4,10.4,59,0.00,CLR,,0.00,WeatherDisplay:10.37,2013-04-24 16:45:00,
2013-04-24 11:50:00,45.0,31.1,30.05,SSW,202,13.8,13.8,58,0.00,CLR,,0.00,WeatherDisplay:10.37,2013-04-24 16:50:00,
2013-04-24 11:55:00,44.6,30.7,30.05,SW,215,11.5,11.5,58,0.00,CLR,,0.00,WeatherDisplay:10.37,2013-04-24 16:55:00,
2013-04-24 12:00:00,45.0,31.1,30.05,SW,236,11.5,11.5,58,0.00,CLR,,0.00,WeatherDisplay:10.37,2013-04-24 17:00:00,
2013-04-24 12:05:00,45.3,31.8,30.05,South,183,4.6,4.6,59,0.00,CLR,,0.00,WeatherDisplay:10.37,2013-04-24 17:05:00,
2013-04-24 12:10:00,45.9,31.9,30.04,SW,228,12.7,12.7,58,0.00,CLR,,0.00,WeatherDisplay:10.37,2013-04-24 17:10:00,
2013-04-24 12:15:00,46.2,31.4,30.04,SSW,207,11.5,11.5,56,0.00,CLR,,0.00,WeatherDisplay:10.37,2013-04-24 17:15:00,
2013-04-24 12:20:00,46.4,32.0,30.04,WSW,252,6.9,6.9,57,0.00,CLR,,0.00,WeatherDisplay:10.37,2013-04-24 17:20:00,
2013-04-24 12:25:00,46.5,31.6,30.04,SW,224,11.5,11.5,56,0.00,CLR,,0.00,WeatherDisplay:10.37,2013-04-24 17:25:00,
2013-04-24 12:30:00,47.0,31.2,30.04,SW,216,19.6,19.6,54,0.00,CLR,,0.00,WeatherDisplay:10.37,2013-04-24 17:30:00,
2013-04-24 12:35:00,46.9,31.6,30.04,SSW,212,13.8,13.8,55,0.00,CLR,,0.00,WeatherDisplay:10.37,2013-04-24 17:35:00,
2013-04-24 12:40:00,46.7,31.4,30.03,SSW,209,10.4,10.4,55,0.00,CLR,,0.00,WeatherDisplay:10.37,2013-04-24 17:40:00,
2013-04-24 12:45:00,47.1,29.9,30.03,SW,234,19.6,19.6,51,0.00,CLR,,0.00,WeatherDisplay:10.37,2013-04-24 17:45:00,
2013-04-24 12:50:00,47.3,30.5,30.03,SSW,211,9.2,9.2,52,0.00,CLR,,0.00,WeatherDisplay:10.37,2013-04-24 17:50:00,
2013-04-24 12:55:00,48.0,31.7,30.02,SW,233,15.0,15.0,53,0.00,CLR,,0.00,WeatherDisplay:10.37,2013-04-24 17:55:00,
2013-04-24 13:00:00,47.9,31.6,30.02,SSW,200,13.8,13.8,53,0.00,CLR,,0.00,WeatherDisplay:10.37,2013-04-24 18:00:00,
2013-04-24 13:05:00,48.3,31.9,30.02,SW,230,10.4,10.4,53,0.00,CLR,,0.00,WeatherDisplay:10.37,2013-04-24 18:05:00,
2013-04-24 13:10:00,48.0,31.7,30.02,SW,217,11.5,11.5,53,0.00,CLR,,0.00,WeatherDisplay:10.37,2013-04-24 18:10:00,
2013-04-24 13:15:00,48.5,31.7,30.02,SW,234,16.1,16.1,52,0.00,CLR,,0.00,WeatherDisplay:10.37,2013-04-24 18:15:00,
2013-04-24 13:20:00,48.4,29.6,30.01,SW,222,20.7,20.7,48,0.00,CLR,,0.00,WeatherDisplay:10.37,2013-04-24 18:20:00,
2013-04-24 13:25:00,48.8,30.0,30.01,South,186,17.3,17.3,48,0.00,CLR,,0.00,WeatherDisplay:10.37,2013-04-24 18:25:00,
2013-04-24 13:30:00,48.8,30.5,30.01,SW,214,11.5,11.5,49,0.00,CLR,,0.00,WeatherDisplay:10.37,2013-04-24 18:30:00,
2013-04-24 13:35:00,49.1,31.7,30.00,WSW,254,16.1,16.1,51,0.00,CLR,,0.00,WeatherDisplay:10.37,2013-04-24 18:35:00,
2013-04-24 13:40:00,49.2,30.3,30.00,SSW,195,13.8,13.8,48,0.00,CLR,,0.00,WeatherDisplay:10.37,2013-04-24 18:40:00,
2013-04-24 13:45:00,49.0,27.5,30.00,SW,234,28.8,28.8,43,0.00,CLR,,0.00,WeatherDisplay:10.37,2013-04-24 18:45:00,
2013-04-24 13:51:00,49.1,27.5,30.00,SW,233,16.1,16.1,43,0.00,CLR,,0.00,WeatherDisplay:10.37,2013-04-24 18:51:00,
2013-04-24 13:56:00,48.8,28.4,30.00,SSE,164,15.0,15.0,45,0.00,CLR,,0.00,WeatherDisplay:10.37,2013-04-24 18:56:00,
2013-04-24 14:01:00,49.4,27.8,30.00,SSW,207,20.7,20.7,43,0.00,CLR,,0.00,WeatherDisplay:10.37,2013-04-24 19:01:00,
2013-04-24 14:06:00,49.3,27.7,30.00,SW,214,21.9,21.9,43,0.00,CLR,,0.00,WeatherDisplay:10.37,2013-04-24 19:06:00,
2013-04-24 14:11:00,49.4,27.8,30.00,SSW,211,26.5,26.5,43,0.00,CLR,,0.00,WeatherDisplay:10.37,2013-04-24 19:11:00,
2013-04-24 14:16:00,49.1,28.7,30.00,SW,226,21.9,21.9,45,0.00,CLR,,0.00,WeatherDisplay:10.37,2013-04-24 19:16:00,
2013-04-24 14:21:00,49.1,29.7,30.00,SW,230,12.7,12.7,47,0.00,CLR,,0.00,WeatherDisplay:10.37,2013-04-24 19:21:00,
2013-04-24 14:26:00,49.6,30.2,29.99,South,183,12.7,12.7,47,0.00,CLR,,0.00,WeatherDisplay:10.37,2013-04-24 19:26:00,
2013-04-24 14:31:00,50.3,29.2,29.99,SSW,206,18.4,18.4,44,0.00,CLR,,0.00,WeatherDisplay:10.37,2013-04-24 19:31:00,
2013-04-24 14:36:00,49.9,29.4,29.99,SW,229,10.4,10.4,45,0.00,CLR,,0.00,WeatherDisplay:10.37,2013-04-24 19:36:00,
2013-04-24 14:41:00,49.7,29.7,29.99,SW,219,21.9,21.9,46,0.00,CLR,,0.00,WeatherDisplay:10.37,2013-04-24 19:41:00,
2013-04-24 14:46:00,49.8,28.2,29.99,SSW,210,15.0,15.0,43,0.00,CLR,,0.00,WeatherDisplay:10.37,2013-04-24 19:46:00,
2013-04-24 14:51:00,49.7,27.5,29.99,South,179,15.0,15.0,42,0.00,CLR,,0.00,WeatherDisplay:10.37,2013-04-24 19:51:00,
2013-04-24 14:56:00,49.7,26.9,29.99,SW,223,18.4,18.4,41,0.00,CLR,,0.00,WeatherDisplay:10.37,2013-04-24 19:56:00,
2013-04-24 15:01:00,49.6,28.0,29.99,SW,235,19.6,19.6,43,0.00,CLR,,0.00,WeatherDisplay:10.37,2013-04-24 20:01:00,
2013-04-24 15:06:00,49.6,28.0,29.99,South,186,19.6,19.6,43,0.00,CLR,,0.00,WeatherDisplay:10.37,2013-04-24 20:06:00,
2013-04-24 15:11:00,49.3,28.3,29.99,SSW,211,20.7,20.7,44,0.00,CLR,,0.00,WeatherDisplay:10.37,2013-04-24 20:11:00,
2013-04-24 15:16:00,49.2,28.2,29.98,SW,227,12.7,12.7,44,0.00,CLR,,0.00,WeatherDisplay:10.37,2013-04-24 20:16:00,
2013-04-24 15:21:00,49.0,28.6,29.99,SW,236,13.8,13.8,45,0.00,CLR,,0.00,WeatherDisplay:10.37,2013-04-24 20:21:00,
2013-04-24 15:26:00,48.9,29.0,29.99,WNW,283,13.8,13.8,46,0.00,CLR,,0.00,WeatherDisplay:10.37,2013-04-24 20:26:00,
2013-04-24 15:31:00,49.0,29.6,29.98,WSW,238,12.7,12.7,47,0.00,CLR,,0.00,WeatherDisplay:10.37,2013-04-24 20:31:00,
2013-04-24 15:36:00,49.1,29.7,29.98,SW,233,19.6,19.6,47,0.00,CLR,,0.00,WeatherDisplay:10.37,2013-04-24 20:36:00,
2013-04-24 15:41:00,48.8,28.4,29.98,SSW,212,18.4,18.4,45,0.00,CLR,,0.00,WeatherDisplay:10.37,2013-04-24 20:41:00,
2013-04-24 15:46:00,48.9,29.0,29.98,SW,215,11.5,11.5,46,0.00,CLR,,0.00,WeatherDisplay:10.37,2013-04-24 20:46:00,
2013-04-24 15:51:00,48.6,27.1,29.98,WSW,238,20.7,20.7,43,0.00,CLR,,0.00,WeatherDisplay:10.37,2013-04-24 20:51:00,
2013-04-24 15:56:00,48.4,29.1,29.97,SW,217,15.0,15.0,47,0.00,CLR,,0.00,WeatherDisplay:10.37,2013-04-24 20:56:00,
2013-04-24 16:01:00,49.1,29.2,29.97,SW,214,18.4,18.4,46,0.00,CLR,,0.00,WeatherDisplay:10.37,2013-04-24 21:01:00,
2013-04-24 16:06:00,48.8,28.9,29.97,SSW,199,18.4,18.4,46,0.00,CLR,,0.00,WeatherDisplay:10.37,2013-04-24 21:06:00,
2013-04-24 16:11:00,48.9,29.5,29.97,SSW,209,20.7,20.7,47,0.00,CLR,,0.00,WeatherDisplay:10.37,2013-04-24 21:11:00,
2013-04-24 16:16:00,48.8,27.3,29.97,WSW,258,21.9,21.9,43,0.00,CLR,,0.00,WeatherDisplay:10.37,2013-04-24 21:16:00,
2013-04-24 16:21:00,48.7,27.7,29.97,SW,227,18.0,18.0,44,0.00,CLR,,0.00,WeatherDisplay:10.37,2013-04-24 21:21:00,
2013-04-24 16:26:00,48.7,27.2,29.96,WSW,247,21.9,21.9,43,0.00,CLR,,0.00,WeatherDisplay:10.37,2013-04-24 21:26:00,
2013-04-24 16:31:00,48.5,28.1,29.96,SSW,206,23.0,23.0,45,0.00,CLR,,0.00,WeatherDisplay:10.37,2013-04-24 21:31:00,
2013-04-24 16:36:00,48.1,28.3,29.96,SW,223,13.8,13.8,46,0.00,CLR,,0.00,WeatherDisplay:10.37,2013-04-24 21:36:00,
2013-04-24 16:41:00,47.8,28.5,29.96,SSW,213,11.5,11.5,47,0.00,CLR,,0.00,WeatherDisplay:10.37,2013-04-24 21:41:00,
2013-04-24 16:46:00,47.5,29.3,29.96,WSW,252,16.1,16.1,49,0.00,CLR,,0.00,WeatherDisplay:10.37,2013-04-24 21:46:00,
2013-04-24 16:51:00,47.2,29.5,29.96,West,262,20.7,20.7,50,0.00,CLR,,0.00,WeatherDisplay:10.37,2013-04-24 21:51:00,
2013-04-24 16:56:00,46.9,29.2,29.96,SW,216,19.6,19.6,50,0.00,CLR,,0.00,WeatherDisplay:10.37,2013-04-24 21:56:00,
2013-04-24 17:01:00,47.0,29.8,29.96,West,259,15.0,15.0,51,0.00,CLR,,0.00,WeatherDisplay:10.37,2013-04-24 22:01:00,
2013-04-24 17:06:00,47.2,28.0,29.96,WSW,254,12.7,12.7,47,0.00,CLR,,0.00,WeatherDisplay:10.37,2013-04-24 22:06:00,
2013-04-24 17:11:00,47.3,25.9,29.96,SW,233,12.7,12.7,43,0.00,CLR,,0.00,WeatherDisplay:10.37,2013-04-24 22:11:00,
2013-04-24 17:16:00,47.0,24.5,29.96,WSW,241,13.8,13.8,41,0.00,CLR,,0.00,WeatherDisplay:10.37,2013-04-24 22:16:00,
2013-04-24 17:21:00,46.8,24.9,29.96,West,280,16.1,16.1,42,0.00,CLR,,0.00,WeatherDisplay:10.37,2013-04-24 22:21:00,
2013-04-24 17:26:00,46.5,24.6,29.96,NW,306,15.0,15.0,42,0.00,CLR,,0.00,WeatherDisplay:10.37,2013-04-24 22:26:00,
2013-04-24 17:31:00,46.4,25.6,29.96,West,271,21.9,21.9,44,0.00,CLR,,0.00,WeatherDisplay:10.37,2013-04-24 22:31:00,
2013-04-24 17:36:00,46.0,26.4,29.96,WNW,294,13.8,13.8,46,0.00,CLR,,0.00,WeatherDisplay:10.37,2013-04-24 22:36:00,
2013-04-24 17:41:00,45.8,27.7,29.96,WSW,256,17.3,17.3,49,0.00,CLR,,0.00,WeatherDisplay:10.37,2013-04-24 22:41:00,
2013-04-24 17:46:00,45.2,28.1,29.96,WNW,293,21.9,21.9,51,0.00,CLR,,0.00,WeatherDisplay:10.37,2013-04-24 22:46:00,
2013-04-24 17:51:00,44.8,28.2,29.96,West,275,18.4,18.4,52,0.00,CLR,,0.00,WeatherDisplay:10.37,2013-04-24 22:51:00,
2013-04-24 17:56:00,44.5,28.4,29.96,WNW,302,16.1,16.1,53,0.00,CLR,,0.00,WeatherDisplay:10.37,2013-04-24 22:56:00,
2013-04-24 18:01:00,44.3,28.2,29.96,NW,309,11.5,11.5,53,0.00,CLR,,0.00,WeatherDisplay:10.37,2013-04-24 23:01:00,
2013-04-24 18:06:00,44.5,29.3,29.96,West,261,12.0,12.0,55,0.00,CLR,,0.00,WeatherDisplay:10.37,2013-04-24 23:06:00,
2013-04-24 18:11:00,44.4,30.1,29.96,WNW,300,11.5,11.5,57,0.00,CLR,,0.00,WeatherDisplay:10.37,2013-04-24 23:11:00,
2013-04-24 18:16:00,44.2,30.3,29.96,WNW,290,10.4,10.4,58,0.00,CLR,,0.00,WeatherDisplay:10.37,2013-04-24 23:16:00,
2013-04-24 18:21:00,43.9,30.5,29.95,WSW,250,5.8,5.8,59,0.00,CLR,,0.00,WeatherDisplay:10.37,2013-04-24 23:21:00,
2013-04-24 18:26:00,43.6,29.8,29.96,West,265,11.5,11.5,58,0.00,CLR,,0.00,WeatherDisplay:10.37,2013-04-24 23:26:00,
2013-04-24 18:31:00,43.2,31.1,29.96,WNW,292,19.6,19.6,62,0.00,CLR,,0.00,WeatherDisplay:10.37,2013-04-24 23:31:00,
2013-04-24 18:36:00,41.8,32.7,29.97,NW,311,11.5,11.5,70,0.00,CLR,,0.00,WeatherDisplay:10.37,2013-04-24 23:36:00,
2013-04-24 18:41:00,39.4,32.5,29.97,NW,316,15.0,15.0,76,0.00,CLR,,0.00,WeatherDisplay:10.37,2013-04-24 23:41:00,
2013-04-24 18:46:00,38.1,32.8,29.98,NW,321,13.0,13.0,81,0.00,CLR,,0.00,WeatherDisplay:10.37,2013-04-24 23:46:00,
2013-04-24 18:51:00,37.4,32.4,29.98,NW,313,19.6,19.6,82,0.00,CLR,,0.00,WeatherDisplay:10.37,2013-04-24 23:51:00,
2013-04-24 18:56:00,36.7,32.3,29.98,North,360,12.7,12.7,84,0.00,CLR,,0.00,WeatherDisplay:10.37,2013-04-24 23:56:00,
2013-04-24 19:01:00,36.1,31.7,29.98,NW,305,15.0,15.0,84,0.00,CLR,,0.01,WeatherDisplay:10.37,2013-04-25 00:01:00,
2013-04-24 19:06:00,35.6,31.5,29.98,NNW,346,17.3,17.3,85,0.01,RA,,0.01,WeatherDisplay:10.37,2013-04-25 00:06:00,
2013-04-24 19:11:00,35.3,31.5,29.98,NW,319,10.4,10.4,86,0.01,RA,,0.01,WeatherDisplay:10.37,2013-04-25 00:11:00,
2013-04-24 19:16:00,35.3,31.8,29.98,NNW,342,6.9,6.9,87,0.01,CLR,,0.01,WeatherDisplay:10.37,2013-04-25 00:16:00,
2013-04-24 19:21:00,35.3,31.8,29.98,NW,322,9.2,9.2,87,0.01,CLR,,0.01,WeatherDisplay:10.37,2013-04-25 00:21:00,
2013-04-24 19:26:00,35.4,32.2,29.98,NNW,327,5.8,5.8,88,0.01,CLR,,0.01,WeatherDisplay:10.37,2013-04-25 00:26:00,
2013-04-24 19:31:00,35.6,32.4,29.98,NW,317,3.5,3.5,88,0.01,CLR,,0.01,WeatherDisplay:10.37,2013-04-25 00:31:00,
2013-04-24 19:36:00,35.7,32.5,29.97,NNW,330,4.6,4.6,88,0.01,CLR,,0.01,WeatherDisplay:10.37,2013-04-25 00:36:00,
2013-04-24 19:41:00,35.7,32.5,29.98,NW,309,4.6,4.6,88,0.01,CLR,,0.01,WeatherDisplay:10.37,2013-04-25 00:41:00,
2013-04-24 19:46:00,35.7,32.5,29.98,NW,314,5.8,5.8,88,0.01,CLR,,0.01,WeatherDisplay:10.37,2013-04-25 00:46:00,
2013-04-24 19:51:00,35.6,32.4,29.98,WNW,303,3.5,3.5,88,0.01,CLR,,0.01,WeatherDisplay:10.37,2013-04-25 00:51:00,
2013-04-24 19:56:00,35.5,32.3,29.99,WNW,303,3.5,3.5,88,0.01,CLR,,0.01,WeatherDisplay:10.37,2013-04-25 00:56:00,
2013-04-24 20:01:00,35.3,32.1,29.99,WNW,303,0.0,0.0,88,0.01,CLR,,0.01,WeatherDisplay:10.37,2013-04-25 01:01:00,
2013-04-24 20:06:00,35.2,32.0,29.99,WNW,302,2.3,2.4,88,0.00,CLR,,0.01,WeatherDisplay:10.37,2013-04-25 01:06:00,
2013-04-24 20:11:00,35.2,32.0,29.99,WNW,296,0.0,0.0,88,0.00,CLR,,0.01,WeatherDisplay:10.37,2013-04-25 01:11:00,
2013-04-24 20:16:00,35.3,32.1,29.99,WNW,297,0.0,0.0,88,0.00,CLR,,0.01,WeatherDisplay:10.37,2013-04-25 01:16:00,
2013-04-24 20:21:00,35.3,32.1,29.99,West,261,4.0,4.0,88,0.00,CLR,,0.01,WeatherDisplay:10.37,2013-04-25 01:21:00,
2013-04-24 20:26:00,35.4,32.2,29.99,WSW,251,3.5,3.6,88,0.00,CLR,,0.01,WeatherDisplay:10.37,2013-04-25 01:26:00,
2013-04-24 20:31:00,35.4,32.2,30.00,WSW,252,3.5,3.6,88,0.00,CLR,,0.01,WeatherDisplay:10.37,2013-04-25 01:31:00,
2013-04-24 20:36:00,35.3,32.1,30.00,WSW,252,5.8,5.8,88,0.00,CLR,,0.01,WeatherDisplay:10.37,2013-04-25 01:36:00,
2013-04-24 20:41:00,35.3,32.1,30.00,WSW,258,9.2,9.2,88,0.00,CLR,,0.01,WeatherDisplay:10.37,2013-04-25 01:41:00,
2013-04-24 20:46:00,35.1,31.9,30.00,WNW,282,6.9,6.9,88,0.00,CLR,,0.01,WeatherDisplay:10.37,2013-04-25 01:46:00,
2013-04-24 20:51:00,35.0,31.8,30.01,West,273,6.9,6.9,88,0.00,CLR,,0.01,WeatherDisplay:10.37,2013-04-25 01:51:00,
2013-04-24 20:56:00,34.9,31.7,30.01,WSW,252,4.6,4.6,88,0.00,CLR,,0.01,WeatherDisplay:10.37,2013-04-25 01:56:00,
2013-04-24 21:01:00,34.8,31.6,30.01,SW,236,6.9,6.9,88,0.00,CLR,,0.01,WeatherDisplay:10.37,2013-04-25 02:01:00,
2013-04-24 21:07:00,34.8,31.6,30.00,WSW,248,6.9,6.9,88,0.00,CLR,,0.01,WeatherDisplay:10.37,2013-04-25 02:07:00,
2013-04-24 21:12:00,34.8,31.6,30.01,WSW,244,6.9,6.9,88,0.00,CLR,,0.01,WeatherDisplay:10.37,2013-04-25 02:12:00,
2013-04-24 21:17:00,34.8,31.6,30.01,SW,223,5.8,5.8,88,0.00,CLR,,0.01,WeatherDisplay:10.37,2013-04-25 02:17:00,
2013-04-24 21:22:00,34.9,31.7,30.02,West,277,3.5,3.5,88,0.00,CLR,,0.01,WeatherDisplay:10.37,2013-04-25 02:22:00,
2013-04-24 21:27:00,34.8,31.6,30.02,West,265,6.9,6.9,88,0.00,CLR,,0.01,WeatherDisplay:10.37,2013-04-25 02:27:00,
2013-04-24 21:32:00,34.8,31.6,30.02,WSW,245,4.6,4.6,88,0.00,CLR,,0.01,WeatherDisplay:10.37,2013-04-25 02:32:00,
2013-04-24 21:37:00,34.7,31.5,30.02,SW,227,4.0,4.0,88,0.00,CLR,,0.01,WeatherDisplay:10.37,2013-04-25 02:37:00,
2013-04-24 21:42:00,34.6,31.4,30.02,SW,226,4.6,4.6,88,0.00,CLR,,0.01,WeatherDisplay:10.37,2013-04-25 02:42:00,
2013-04-24 21:47:00,34.4,31.2,30.02,SW,229,5.8,5.8,88,0.00,CLR,,0.01,WeatherDisplay:10.37,2013-04-25 02:47:00,
2013-04-24 21:52:00,34.4,31.2,30.02,SW,222,5.8,5.8,88,0.00,CLR,,0.01,WeatherDisplay:10.37,2013-04-25 02:52:00,
2013-04-24 21:57:00,34.5,31.6,30.02,WSW,240,5.8,5.8,89,0.00,CLR,,0.01,WeatherDisplay:10.37,2013-04-25 02:57:00,
2013-04-24 22:02:00,34.7,31.8,30.03,West,273,5.8,5.8,89,0.00,CLR,,0.01,WeatherDisplay:10.37,2013-04-25 03:02:00,
2013-04-24 22:07:00,34.8,31.9,30.03,SW,235,9.2,9.2,89,0.00,CLR,,0.01,WeatherDisplay:10.37,2013-04-25 03:07:00,
2013-04-24 22:12:00,35.0,31.8,30.03,SW,224,9.2,9.2,88,0.00,CLR,,0.01,WeatherDisplay:10.37,2013-04-25 03:12:00,
2013-04-24 22:17:00,35.2,32.0,30.03,West,263,9.2,9.2,88,0.00,CLR,,0.01,WeatherDisplay:10.37,2013-04-25 03:17:00,
2013-04-24 22:22:00,35.3,32.1,30.03,West,271,6.9,6.9,88,0.00,CLR,,0.01,WeatherDisplay:10.37,2013-04-25 03:22:00,
2013-04-24 22:27:00,35.5,32.3,30.03,SW,228,5.8,5.8,88,0.00,CLR,,0.01,WeatherDisplay:10.37,2013-04-25 03:27:00,
2013-04-24 22:32:00,35.7,32.5,30.03,WSW,258,10.4,10.4,88,0.00,CLR,,0.01,WeatherDisplay:10.37,2013-04-25 03:32:00,
2013-04-24 22:37:00,35.9,32.4,30.03,WSW,252,8.0,8.0,87,0.00,CLR,,0.01,WeatherDisplay:10.37,2013-04-25 03:37:00,
2013-04-24 22:42:00,36.1,32.6,30.03,West,270,10.4,10.4,87,0.00,CLR,,0.01,WeatherDisplay:10.37,2013-04-25 03:42:00,
2013-04-24 22:47:00,36.1,32.3,30.03,SW,226,13.8,13.8,86,0.00,CLR,,0.01,WeatherDisplay:10.37,2013-04-25 03:47:00,
2013-04-24 22:52:00,36.1,32.3,30.03,SW,229,17.3,17.3,86,0.00,CLR,,0.01,WeatherDisplay:10.37,2013-04-25 03:52:00,
2013-04-24 22:57:00,36.1,32.0,30.04,SW,234,15.0,15.0,85,0.00,CLR,,0.01,WeatherDisplay:10.37,2013-04-25 03:57:00,
2013-04-24 23:01:00,36.1,32.0,30.03,WSW,241,17.3,17.3,85,0.00,CLR,,0.01,WeatherDisplay:10.37,2013-04-25 04:01:00,
2013-04-24 23:06:00,36.1,32.0,30.03,West,280,10.4,10.4,85,0.00,CLR,,0.01,WeatherDisplay:10.37,2013-04-25 04:06:00,
2013-04-24 23:11:00,36.0,31.9,30.03,West,269,10.4,10.4,85,0.00,CLR,,0.01,WeatherDisplay:10.37,2013-04-25 04:11:00,
2013-04-24 23:16:00,35.9,31.8,30.03,WNW,290,16.1,16.1,85,0.00,CLR,,0.01,WeatherDisplay:10.37,2013-04-25 04:16:00,
2013-04-24 23:21:00,35.8,31.7,30.03,NW,319,11.0,11.0,85,0.00,CLR,,0.01,WeatherDisplay:10.37,2013-04-25 04:21:00,
2013-04-24 23:26:00,35.5,31.1,30.04,West,280,16.1,16.1,84,0.00,CLR,,0.01,WeatherDisplay:10.37,2013-04-25 04:26:00,
2013-04-24 23:31:00,35.3,30.7,30.04,West,277,18.4,18.4,83,0.00,CLR,,0.01,WeatherDisplay:10.37,2013-04-25 04:31:00,
2013-04-24 23:36:00,34.9,30.6,30.04,West,272,19.6,19.6,84,0.00,CLR,,0.01,WeatherDisplay:10.37,2013-04-25 04:36:00,
2013-04-24 23:41:00,34.7,30.4,30.04,WSW,246,11.5,11.5,84,0.00,CLR,,0.01,WeatherDisplay:10.37,2013-04-25 04:41:00,
2013-04-24 23:46:00,34.6,30.3,30.04,WNW,286,6.9,6.9,84,0.00,CLR,,0.01,WeatherDisplay:10.37,2013-04-25 04:46:00,
2013-04-24 23:51:00,34.6,30.6,30.04,NW,308,15.0,15.0,85,0.00,CLR,,0.01,WeatherDisplay:10.37,2013-04-25 04:51:00,
2013-04-24 23:56:00,34.6,30.6,30.04,NW,310,13.8,13.8,85,0.00,CLR,,0.01,WeatherDisplay:10.37,2013-04-25 04:56:00,